When you browse on this site, cookies collect data to enhance your experience and personalize the content and advertising you see.
Visit our Privacy Policy to learn more. By continuing to use the site, you agree to this use of cookies and data.
  • In Austria
  • List of Countries
  • For 7 days
  • Water Temperature
  • Weather Map
  • News
  • Weather Widgets
  • user-avatar
    Login

    Hourly Weather Medina

    Today, 17 September, Tuesday

    Time Temperature Precipitation Wind Pressure Humidity
    00:00 +24°C° 0 mm 1 mps 714 mmHg 87%
    01:00 +23°C° 0 mm 1 mps 714 mmHg 86%
    02:00 +23°C° 0 mm 1 mps 713 mmHg 85%
    03:00 +23°C° 0 mm 1 mps 713 mmHg 83%
    04:00 +23°C° 0 mm 1 mps 713 mmHg 82%
    05:00 +24°C° 0 mm 1 mps 714 mmHg 80%
    06:00 +25°C° 0 mm 1 mps 714 mmHg 78%
    07:00 +26°C° 0 mm 1 mps 715 mmHg 76%
    08:00 +28°C° 0.1 mm 1 mps 715 mmHg 72%
    09:00 +30°C° 0.1 mm 1 mps 715 mmHg 67%
    10:00 +32°C° 0.1 mm 1 mps 715 mmHg 62%
    11:00 +32°C° 0.4 mm 2 mps 714 mmHg 65%
    12:00 +31°C° 0.4 mm 2 mps 714 mmHg 67%
    13:00 +31°C° 0.4 mm 2 mps 713 mmHg 70%
    14:00 +31°C° 1.9 mm 2 mps 712 mmHg 76%
    15:00 +30°C° 1.9 mm 1 mps 712 mmHg 81%
    16:00 +27°C° 1.9 mm 0 mps 711 mmHg 87%
    17:00 +28°C° 1.3 mm 1 mps 712 mmHg 88%
    18:00 +26°C° 1.3 mm 1 mps 712 mmHg 90%
    19:00 +25°C° 1.3 mm 1 mps 712 mmHg 92%
    20:00 +25°C° 1.2 mm 1 mps 713 mmHg 92%
    21:00 +24°C° 1.2 mm 1 mps 713 mmHg 92%
    22:00 +24°C° 1.2 mm 1 mps 714 mmHg 93%
    23:00 +24°C° 0.7 mm 1 mps 714 mmHg 93%

    Tomorrow, 18 September, Wednesday

    Time Temperature Precipitation Wind Pressure Humidity
    00:00 +24°C° 0.7 mm 1 mps 713 mmHg 93%
    01:00 +24°C° 0.7 mm 1 mps 713 mmHg 93%
    02:00 +24°C° 0.5 mm 1 mps 713 mmHg 93%
    03:00 +24°C° 0.5 mm 1 mps 713 mmHg 93%
    04:00 +24°C° 0.5 mm 1 mps 713 mmHg 93%
    05:00 +24°C° 0.6 mm 1 mps 713 mmHg 93%
    06:00 +24°C° 0.6 mm 1 mps 714 mmHg 93%
    07:00 +24°C° 0.6 mm 1 mps 714 mmHg 92%
    08:00 +26°C° 0.2 mm 1 mps 714 mmHg 85%
    09:00 +28°C° 0.2 mm 1 mps 714 mmHg 77%
    10:00 +30°C° 0.2 mm 1 mps 715 mmHg 69%
    11:00 +31°C° 0.4 mm 1 mps 714 mmHg 68%
    12:00 +31°C° 0.4 mm 1 mps 713 mmHg 67%
    13:00 +32°C° 0.4 mm 1 mps 712 mmHg 65%
    14:00 +31°C° 0.6 mm 1 mps 711 mmHg 70%
    15:00 +31°C° 0.6 mm 1 mps 711 mmHg 76%
    16:00 +30°C° 0.6 mm 1 mps 710 mmHg 81%
    17:00 +28°C° 0.4 mm 1 mps 710 mmHg 84%
    18:00 +27°C° 0.4 mm 1 mps 711 mmHg 88%
    19:00 +25°C° 0.4 mm 1 mps 711 mmHg 91%
    20:00 +25°C° 0.5 mm 1 mps 711 mmHg 91%
    21:00 +24°C° 0.5 mm 1 mps 712 mmHg 91%
    22:00 +24°C° 0.5 mm 1 mps 712 mmHg 92%
    23:00 +24°C° 1.1 mm 1 mps 712 mmHg 91%

    Day after tomorrow, 19 September, Thursday

    Time Temperature Precipitation Wind Pressure Humidity
    00:00 +24°C° 1.1 mm 1 mps 712 mmHg 90%
    01:00 +23°C° 1.1 mm 2 mps 712 mmHg 89%
    02:00 +24°C° 0.7 mm 1 mps 712 mmHg 88%
    03:00 +24°C° 0.7 mm 1 mps 712 mmHg 87%
    04:00 +24°C° 0.7 mm 1 mps 712 mmHg 86%
    05:00 +24°C° 0.2 mm 1 mps 712 mmHg 86%
    06:00 +25°C° 0.2 mm 1 mps 713 mmHg 85%
    07:00 +25°C° 0.2 mm 1 mps 713 mmHg 84%
    08:00 +27°C° 0.1 mm 1 mps 713 mmHg 79%
    09:00 +28°C° 0.1 mm 1 mps 713 mmHg 74%
    10:00 +30°C° 0.1 mm 1 mps 714 mmHg 69%
    11:00 +30°C° 0.4 mm 1 mps 713 mmHg 71%
    12:00 +30°C° 0.4 mm 1 mps 712 mmHg 73%
    13:00 +31°C° 0.4 mm 1 mps 711 mmHg 75%
    14:00 +30°C° 0.7 mm 1 mps 711 mmHg 79%
    15:00 +30°C° 0.7 mm 1 mps 711 mmHg 82%
    16:00 +29°C° 0.7 mm 1 mps 710 mmHg 86%
    17:00 +28°C° 0.6 mm 1 mps 711 mmHg 88%
    18:00 +27°C° 0.6 mm 1 mps 711 mmHg 90%
    19:00 +25°C° 0.6 mm 1 mps 711 mmHg 92%
    20:00 +25°C° 0.2 mm 1 mps 712 mmHg 91%
    21:00 +25°C° 0.2 mm 1 mps 712 mmHg 90%
    22:00 +24°C° 0.2 mm 1 mps 713 mmHg 89%
    23:00 +24°C° 2.1 mm 1 mps 713 mmHg 92%

    20 September, Friday

    Time Temperature Precipitation Wind Pressure Humidity
    00:00 +24°C° 2.1 mm 1 mps 713 mmHg 95%
    01:00 +24°C° 2.1 mm 1 mps 713 mmHg 97%
    02:00 +24°C° 2.1 mm 1 mps 713 mmHg 97%
    03:00 +22°C° 2.1 mm 0 mps 713 mmHg 97%
    04:00 +21°C° 2.1 mm 0 mps 713 mmHg 97%
    05:00 +21°C° 1.5 mm 0 mps 714 mmHg 97%
    06:00 +23°C° 1.5 mm 1 mps 714 mmHg 96%
    07:00 +24°C° 1.5 mm 1 mps 715 mmHg 96%
    08:00 +25°C° 0.4 mm 1 mps 715 mmHg 92%
    09:00 +26°C° 0.4 mm 1 mps 716 mmHg 89%
    10:00 +27°C° 0.4 mm 1 mps 716 mmHg 86%
    11:00 +27°C° 0.3 mm 1 mps 715 mmHg 83%
    12:00 +28°C° 0.3 mm 1 mps 715 mmHg 79%
    13:00 +28°C° 0.3 mm 1 mps 714 mmHg 76%
    14:00 +29°C° 0.3 mm 1 mps 714 mmHg 76%
    15:00 +29°C° 0.3 mm 1 mps 714 mmHg 77%
    16:00 +29°C° 0.3 mm 1 mps 713 mmHg 78%
    17:00 +28°C° 0.2 mm 1 mps 713 mmHg 81%
    18:00 +26°C° 0.2 mm 1 mps 713 mmHg 84%
    19:00 +25°C° 0.2 mm 1 mps 714 mmHg 87%
    20:00 +25°C° 0 mm 1 mps 714 mmHg 86%
    21:00 +24°C° 0 mm 1 mps 714 mmHg 85%
    22:00 +24°C° 0 mm 1 mps 714 mmHg 85%
    23:00 +24°C° 0 mm 1 mps 714 mmHg 84%

    21 September, Saturday

    Time Temperature Precipitation Wind Pressure Humidity
    00:00 +24°C° 0 mm 1 mps 714 mmHg 82%
    01:00 +23°C° 0 mm 2 mps 714 mmHg 81%
    02:00 +23°C° 0 mm 1 mps 714 mmHg 81%
    03:00 +23°C° 0 mm 1 mps 714 mmHg 81%
    04:00 +23°C° 0 mm 1 mps 714 mmHg 81%
    05:00 +24°C° 0.1 mm 1 mps 714 mmHg 81%
    06:00 +24°C° 0.1 mm 1 mps 715 mmHg 81%
    07:00 +25°C° 0.1 mm 1 mps 715 mmHg 81%
    08:00 +27°C° 0.3 mm 1 mps 716 mmHg 77%
    09:00 +29°C° 0.3 mm 1 mps 716 mmHg 72%
    10:00 +30°C° 0.3 mm 1 mps 716 mmHg 67%
    11:00 +31°C° 0.7 mm 1 mps 715 mmHg 70%
    12:00 +31°C° 0.7 mm 1 mps 715 mmHg 72%
    13:00 +31°C° 0.7 mm 1 mps 714 mmHg 74%
    14:00 +30°C° 0.8 mm 1 mps 713 mmHg 76%
    15:00 +30°C° 0.8 mm 1 mps 713 mmHg 77%
    16:00 +30°C° 0.8 mm 1 mps 712 mmHg 79%
    17:00 +28°C° 0.6 mm 1 mps 712 mmHg 83%
    18:00 +26°C° 0.6 mm 1 mps 713 mmHg 86%
    19:00 +25°C° 0.6 mm 1 mps 713 mmHg 90%
    20:00 +24°C° 0.2 mm 2 mps 713 mmHg 89%
    21:00 +24°C° 0.2 mm 2 mps 714 mmHg 89%
    22:00 +23°C° 0.2 mm 2 mps 714 mmHg 88%
    23:00 +23°C° 0 mm 2 mps 714 mmHg 85%

    22 September, Sunday

    Time Temperature Precipitation Wind Pressure Humidity
    00:00 +23°C° 0 mm 2 mps 714 mmHg 82%
    01:00 +23°C° 0 mm 2 mps 713 mmHg 79%
    02:00 +23°C° 0.3 mm 1 mps 713 mmHg 79%
    03:00 +23°C° 0.3 mm 1 mps 713 mmHg 80%
    04:00 +23°C° 0.3 mm 1 mps 713 mmHg 80%
    05:00 +23°C° 0.8 mm 1 mps 714 mmHg 81%
    06:00 +24°C° 0.8 mm 1 mps 714 mmHg 83%
    07:00 +24°C° 0.8 mm 1 mps 715 mmHg 84%
    08:00 +26°C° 0.8 mm 1 mps 715 mmHg 82%
    09:00 +27°C° 0.8 mm 1 mps 715 mmHg 80%
    10:00 +29°C° 0.8 mm 1 mps 715 mmHg 79%
    11:00 +29°C° 1.7 mm 1 mps 715 mmHg 81%
    12:00 +29°C° 1.7 mm 1 mps 714 mmHg 83%
    13:00 +29°C° 1.7 mm 2 mps 714 mmHg 85%
    14:00 +27°C° 3 mm 1 mps 713 mmHg 89%
    15:00 +26°C° 3 mm 1 mps 713 mmHg 94%
    16:00 +24°C° 3 mm 1 mps 713 mmHg 98%
    17:00 +24°C° 4.4 mm 1 mps 713 mmHg 98%
    18:00 +24°C° 4.4 mm 1 mps 713 mmHg 98%
    19:00 +23°C° 4.4 mm 1 mps 713 mmHg 97%
    20:00 +23°C° 0.3 mm 2 mps 713 mmHg 95%
    21:00 +23°C° 0.3 mm 2 mps 714 mmHg 92%
    22:00 +23°C° 0.3 mm 2 mps 714 mmHg 89%
    23:00 +24°C° 0 mm 2 mps 714 mmHg 85%
    Show more